Tracking 29781 objects as of 15-Oct-2024
HD Live streaming from Space Station
objects crossing your sky now

DELTA 1 DEB

Track DELTA 1 DEB now!
10-day predictions


NORAD ID: 21355
Int'l Code: 1975-052BZ
Perigee: 1,100.6 km
Apogee: 1,328.1 km
Inclination: 99.6 °
Period: 109.6 minutes
Semi major axis: 7585 km
RCS: 0.0166 m2 (small)
Launch date: June 12, 1975
Source: United States (US)
Launch site: AIR FORCE WESTERN TEST RANGE (AFWTR)

Note: This is SATELLITE DEBRIS
Your satellite tracking list
Your tracking list is empty




NASA's NSSDC Master Catalog

Two Line Element Set (TLE):
1 21355U 75052BZ  24288.54972920  .00000052  00000-0  23211-3 0  9996
2 21355  99.6124 307.1235 0149914 354.8805 161.6835 13.14135945601925
Source of the keplerian elements: AFSPC